ALSAT-1B

Last updated on Mon Sep 07 2026 00:02:46 GMT+0000 (Coordinated Universal Time)

1 41785U 16059C 26249.59076865 .00000403 00000+0 71164-4 0 9994 2 41785 97.7793 254.8548 0008698 334.0074 26.0697 14.72327611532551
UTC large
Height (km)
Speed (km/s)
/
Latitude / Longitude
Inclination (degrees)
Orbital Period (minutes)
Azimuth
Elevation
Range (km)
Doppler Factor

Next 0 passes for location: London (51.5072 / 0.1276)

No passes found over London.